Volver al catálogo

GLOBALSTAR M004 DEB

ActivoLEO
NORAD 43357·DEBRIS·🇺🇸 United States

Lanzado Feb 14, 1998 desde Cape Canaveral Space Force Station

Loading…

Próximos Pases (próximas 24 horas)

TLE

ActualizadoSource: Space-Track

Época: Sep 14, 2026, 05:59 UTC

1 43357U 98008H   26257.24993340  .00001443  00000-0  86427-2 0  9994
2 43357  51.9707 221.3516 0095076 275.6276  83.3753 12.60800730489620

Sigue GLOBALSTAR M004 DEB en tiempo real con AllMySat

Download on the App Store